Terminal Aerodrome Forecast
Issued by NWS Charleston, WV

Current Version | Previous Version | Text Only | Print | Product List | Glossary Off
Versions: 1 2 3 4 5 6 7 8 9 10 11 12 13 14 15 16 17 18 19 20 21 22 23 24

000
FTUS41 KRLX 010500
TAFBKW
TAF
KBKW 010539Z 0106/0206 21005KT P6SM BKN060
     FM010900 22004KT P6SM BKN035
     FM011100 24005KT P6SM BKN020
     FM011400 26005KT P6SM BKN035
     FM011600 26008KT P6SM BKN035
     FM011800 25009KT P6SM SCT040
     FM020200 19004KT P6SM SCT035=

USA.gov is the U.S. government's official web portal to all federal, state and local government web resources and services.